OBJECT BB, 61784

Orbit data source: Space-Track

You're viewing an Uncataloged Satellite

Recently launched and/or uncataloged satellites may have evolving metadata. Metadata may include but not limited to: Owner, Maufacturer, Bus, Motor, and Mission.

OBJECT BB, 61784 is a satellite in SSO that was launched on Mon, 04 Nov 2024 UTC via a SOYUZ-2-1B launch vehicle from the Vostochny Cosmodrome (VOSTO). Unknown objects in Earth's orbit typically refer to objects detected orbiting the Earth but have not yet been identified or cataloged. These objects could be anything from previously untracked satellites, spent rocket stages, debris from satellite collisions, or even natural meteoroids temporarily captured by Earth's gravity.

Loading next visibility...
Identifier
61784, 2024-199BB
Orbit
SSO
Country
Flag of TBDTBD
Related business
Manufacturer
SNIU
Mission
Operational Amateur Technology
Bus & Motor
CUBESAT 3U, Unknown motor
Mass
3 kg wet, 3 kg dry
Launch date (UTC)
2024-11-04 (1 year ago)
Launch vehicle
SOYUZ-2-1B
Launch site
Vostochny Cosmodrome (VOSTO)
Object type
Unknown
Shape & HBR
Box, 0.1 m
Radar Cross Section
0.035 m², Small (<0.1 m²)

Expand to show TLE details & history
Last TLE update: 8 hours ago

TLE from 8 hours ago
0 OBJECT BB
1 61784U 24199BB  25295.18892497  .00032822  00000-0  84244-3 0  9994
2 61784  97.3293 163.2949 0015263  73.7575 286.5348 15.39139231100741
Epoch: 2025-10-22T04:32Z
TLE epoch observation values (Epoch: 2025-10-22T04:32:03.117Z)
Latitude
-0.00008°
Longitude
64.41581°
Altitude
448.82 km
Speed
7.645 km/s
True Right ascension
10h 53m 10s
True Declination
0° 00' 00"
Sunlit
Object was in daylight at epoch
Visualization orbit readout
Latitude
Unknown
Longitude
Unknown
Altitude
Unknown
Speed
Unknown
Apparent Right ascension
Unknown
Apparent Declination
Unknown
Sunlit
N/A
Visualization observer readout
Local Sidereal Time
07:11:49
Azimuth
Unknown
Elevation
Unknown
Doppler factor
Unknown
Orbital elements
Apogee altitude
456.006 km
Perigee altitude
435.175 km
Semi-major axis
6,823.727 km
Eccentricity
0.00153
Inclination
97.3293°
RAAN
163.2949°
Arg. of periapsis
73.7575°
True anomaly
286.36704°
Mean anomaly
286.5348°
Eccentric anomaly
286.45093°
Mean motion
3.85044 °/min
Orbital period
93.5 mins
BSTAR
0.00084244
Loading maneuver chart data...
Computing Atmospheric mass density...
Loading historical data...
Loading historical data...
Loading historical data...
Loading historical data...
Loading historical data...
Loading historical data...
Loading historical data...

Documentation

Showing up to 5 results
|